Waarnemingen

Advertentie
Mijn weer
Elsenborn, België (6496): temperatuur & dauwpunt: 07.12.2018 14:00:00 - 13.12.2018 14:00:00 (CET)Elsenborn, België (6496): windsnelheid & windstoten: 07.12.2018 14:00:00 - 13.12.2018 14:00:00 (CET)Elsenborn, België (6496): windrichting: 07.12.2018 14:00:00 - 13.12.2018 14:00:00 (CET)Elsenborn, België (6496): luchtdruk: 07.12.2018 14:00:00 - 13.12.2018 14:00:00 (CET)Elsenborn, België (6496): zicht: 07.12.2018 14:00:00 - 13.12.2018 14:00:00 (CET)
Datum & Tijd tt [°C] td [°C] ff [km/u] ff [kn] fx [km/u] fx [kn] dd ppp [hPa] vv [km]
13.12.2018 14:00:00 -1,9 -5,3 11 6 36 19 O 1019,2 19
13.12.2018 13:00:00 -1,5 -6,0 18 10 - - O 1019,3 20
13.12.2018 12:00:00 -1,9 -5,2 16 9 36 19 O 1019,8 10
13.12.2018 11:00:00 -2,1 -5,0 14 8 29 16 O 1020,5 20
13.12.2018 10:00:00 -2,5 -4,0 11 6 - - O 1020,6 20
13.12.2018 09:00:00 -2,7 -3,9 7 4 18 10 O 1020,7 20
13.12.2018 08:00:00 -2,1 -3,4 11 6 22 12 O 1020,3 20
13.12.2018 07:00:00 -2,0 -3,2 11 6 - - O 1020,6 10
13.12.2018 06:00:00 -1,9 -3,5 7 4 22 12 N 1020,7 20
13.12.2018 05:00:00 -1,4 -2,4 7 4 22 12 O 1021,2 20
13.12.2018 04:00:00 -1,7 -2,5 7 4 - - O 1021,8 19
13.12.2018 03:00:00 -1,7 -2,6 4 2 18 10 N 1022,2 18
13.12.2018 02:00:00 -1,2 -2,3 7 4 18 10 O 1022,6 20
13.12.2018 01:00:00 -1,3 -2,6 4 2 - - N 1023,2 20
13.12.2018 00:00:00 -1,6 -2,6 4 2 11 6 N 1023,8 20
12.12.2018 23:00:00 -2,4 -3,1 4 2 11 6 N 1024,4 11
12.12.2018 22:00:00 -2,2 -2,8 2 1 - - - 1024,5 5
12.12.2018 21:00:00 -1,6 -2,1 4 2 7 4 N 1024,5 5
12.12.2018 20:00:00 -2,2 -2,4 4 2 7 4 N 1025,0 5
12.12.2018 19:00:00 -2,5 -3,0 4 2 - - N 1025,2 5
12.12.2018 18:00:00 -2,5 -3,1 4 2 4 2 N 1025,2 4,7
12.12.2018 17:00:00 -1,6 -2,7 4 2 11 6 N 1024,9 9
12.12.2018 16:00:00 -0,4 -2,6 4 2 - - N 1024,9 20
12.12.2018 15:00:00 -0,1 -1,5 7 4 11 6 ONO 1024,9 18
12.12.2018 14:00:00 0,3 -1,4 4 2 14 8 N 1025,0 20
12.12.2018 13:00:00 0,0 -0,6 4 2 - - - 1025,7 19
12.12.2018 12:00:00 -0,1 -0,1 4 2 7 4 N 1026,2 12
12.12.2018 11:00:00 -0,7 -0,7 4 2 4 2 - 1026,5 1,5
12.12.2018 10:00:00 -1,9 -1,9 4 2 - - N 1027,0 1,8
12.12.2018 09:00:00 -5,4 -5,7 4 2 4 2 N 1027,7 10
12.12.2018 08:00:00 -5,9 -6,9 0 0 4 2 N 1027,5 11
12.12.2018 07:00:00 -4,9 -5,7 4 2 - - N 1027,0 12
12.12.2018 06:00:00 -4,7 -5,2 2 1 0 0 - 1026,9 0,7
12.12.2018 05:00:00 -3,7 -3,9 4 2 0 0 N 1026,7 1,1
12.12.2018 04:00:00 -3,5 -3,6 4 2 - - N 1026,7 4,1
12.12.2018 03:00:00 -2,4 -2,4 4 2 7 4 N 1026,5 0,1
12.12.2018 02:00:00 -1,8 -2,1 2 1 4 2 - 1026,0 2,5
12.12.2018 01:00:00 -1,2 -1,4 2 1 - - - 1026,2 1,6
12.12.2018 00:00:00 0,1 0,1 4 2 4 2 N 1025,9 2,3
11.12.2018 23:00:00 0,2 0,1 4 2 4 2 N 1025,7 2,3
11.12.2018 22:00:00 0,1 0,1 0 0 - - N 1025,7 3,1
11.12.2018 21:00:00 0,4 0,2 4 2 11 6 N 1025,7 1,8
11.12.2018 20:00:00 0,0 -0,4 2 1 11 6 - 1025,9 3,1
11.12.2018 19:00:00 0,5 0,0 4 2 - - N 1025,5 7
11.12.2018 18:00:00 0,8 0,1 4 2 11 6 N 1025,4 12
11.12.2018 17:00:00 0,8 0,2 4 2 7 4 - 1025,2 14
11.12.2018 16:00:00 1,5 0,0 4 2 - - N 1025,0 20
11.12.2018 15:00:00 1,6 0,0 11 6 14 8 WNW 1025,0 17
11.12.2018 14:00:00 1,1 0,0 7 4 18 10 WNW 1025,4 12
11.12.2018 13:00:00 1,5 0,2 11 6 - - WNW 1025,5 15
11.12.2018 12:00:00 1,1 -0,3 11 6 18 10 W 1025,7 14
11.12.2018 11:00:00 - - - - - - - - -
11.12.2018 10:00:00 0,3 -0,6 7 4 - - WNW 1025,9 15
11.12.2018 09:00:00 0,2 -0,7 7 4 14 8 WNW 1025,7 18
11.12.2018 08:00:00 - - - - - - - - -
11.12.2018 07:00:00 0,2 -0,3 9 5 - - W 1025,5 10
11.12.2018 06:00:00 0,3 0,0 7 4 18 10 WNW 1025,7 9
11.12.2018 05:00:00 0,3 0,0 7 4 22 12 WNW 1025,5 1,8
11.12.2018 04:00:00 0,3 0,0 11 6 - - WNW 1025,7 1,4
11.12.2018 03:00:00 0,5 0,3 7 4 22 12 WNW 1025,9 11
11.12.2018 02:00:00 0,6 0,3 11 6 22 12 WNW 1025,7 6
11.12.2018 01:00:00 0,8 0,1 11 6 - - WNW 1025,7 14
11.12.2018 00:00:00 0,6 0,0 11 6 18 10 WNW 1025,9 12
10.12.2018 23:00:00 0,9 0,3 11 6 25 14 WNW 1025,7 11
10.12.2018 22:00:00 1,0 0,1 11 6 - - WNW 1025,7 10
10.12.2018 21:00:00 1,1 0,2 11 6 29 16 NW 1025,5 18
10.12.2018 20:00:00 1,1 0,2 11 6 29 16 NW 1025,5 19
10.12.2018 19:00:00 1,2 0,5 11 6 - - NW 1025,2 19
10.12.2018 18:00:00 1,3 0,9 18 10 29 16 WNW 1024,7 7
10.12.2018 17:00:00 1,0 0,7 15 8 29 16 WNW 1024,5 4,1
10.12.2018 16:00:00 2,5 0,5 14 8 - - W 1023,6 20
10.12.2018 15:00:00 2,9 1,0 14 8 32 18 W 1023,1 20
10.12.2018 14:00:00 2,7 0,9 14 8 36 19 WNW 1023,2 20
10.12.2018 13:00:00 2,7 0,7 18 10 - - WNW 1023,5 20
10.12.2018 12:00:00 2,2 0,8 18 10 32 18 WNW 1023,7 20
10.12.2018 11:00:00 2,0 1,1 18 10 36 19 WNW 1023,7 16
10.12.2018 10:00:00 1,8 1,0 18 10 - - WNW 1023,6 14
10.12.2018 09:00:00 1,7 0,7 22 12 36 19 WNW 1023,0 16
10.12.2018 08:00:00 1,8 1,0 18 10 36 19 WNW 1022,5 12
10.12.2018 07:00:00 1,7 1,2 22 12 - - W 1022,0 9
10.12.2018 06:00:00 1,7 1,2 14 8 36 19 WNW 1021,5 10
10.12.2018 05:00:00 1,2 0,8 18 10 32 18 W 1021,0 3,6
10.12.2018 04:00:00 1,6 1,2 14 8 - - WNW 1020,6 13
10.12.2018 03:00:00 1,3 0,8 14 8 32 18 WNW 1020,5 14
10.12.2018 02:00:00 1,4 0,8 14 8 36 19 WNW 1019,7 20
10.12.2018 01:00:00 1,1 0,7 16 9 - - WNW 1019,0 5
10.12.2018 00:00:00 2,3 1,7 18 10 36 19 WNW 1017,8 5
09.12.2018 23:00:00 2,7 2,2 18 10 47 25 WNW 1016,8 2,8
09.12.2018 22:00:00 3,2 2,0 24 13 - - WNW 1015,7 10
09.12.2018 21:00:00 3,2 2,5 18 10 54 29 WNW 1014,7 20
09.12.2018 20:00:00 3,4 2,7 22 12 43 23 WNW 1013,6 6
09.12.2018 19:00:00 3,7 2,8 22 12 - - WNW 1012,0 16
09.12.2018 18:00:00 4,0 2,9 22 12 43 23 WNW 1010,2 20
09.12.2018 17:00:00 3,7 3,2 13 7 36 19 NW 1008,7 10
09.12.2018 16:00:00 4,4 3,5 14 8 - - NW 1006,7 20
09.12.2018 15:00:00 4,4 3,8 18 10 47 25 WNW 1005,1 7
09.12.2018 14:00:00 4,5 3,7 22 12 43 23 WNW 1003,6 4,6
09.12.2018 13:00:00 4,5 3,6 22 12 - - W 1002,8 7
09.12.2018 12:00:00 5,0 4,1 22 12 43 23 W 1002,0 4,3
09.12.2018 11:00:00 4,8 4,0 22 12 40 21 W 1002,0 5
09.12.2018 10:00:00 4,5 3,8 21 11 - - W 1001,8 6
09.12.2018 09:00:00 4,7 3,3 22 12 50 27 W 1001,6 16
09.12.2018 08:00:00 4,8 2,7 22 12 61 33 W 1001,0 20
09.12.2018 07:00:00 4,8 3,2 25 14 - - W 1000,6 19
09.12.2018 06:00:00 4,8 3,5 22 12 47 25 W 999,7 9
09.12.2018 05:00:00 5,0 3,5 24 13 61 33 W 999,1 3,5
09.12.2018 04:00:00 5,5 3,5 25 14 - - W 998,9 20
09.12.2018 03:00:00 5,4 3,8 22 12 54 29 W 998,7 14
09.12.2018 02:00:00 6,0 3,6 25 14 65 35 W 998,2 16
09.12.2018 01:00:00 5,8 4,6 25 14 - - W 998,2 14
09.12.2018 00:00:00 6,3 4,9 18 10 54 29 W 998,3 19
08.12.2018 23:00:00 6,9 5,9 18 10 47 25 W 998,4 20
08.12.2018 22:00:00 6,5 6,3 18 10 - - WZW 999,1 18
08.12.2018 21:00:00 6,1 5,9 14 8 40 21 ZW 1000,2 2,6
08.12.2018 20:00:00 6,0 5,7 14 8 40 21 ZW 1002,0 6
08.12.2018 19:00:00 5,5 5,2 11 6 - - ZW 1003,7 6
08.12.2018 18:00:00 5,3 5,1 11 6 32 18 ZW 1005,2 4,1
08.12.2018 17:00:00 5,3 4,7 13 7 36 19 WZW 1006,3 3,4
08.12.2018 16:00:00 5,3 4,4 14 8 - - WZW 1006,7 13
08.12.2018 15:00:00 5,1 4,1 18 10 43 23 W 1007,0 4,3
08.12.2018 14:00:00 4,9 4,0 11 6 40 21 W 1007,2 18
08.12.2018 13:00:00 4,6 3,8 18 10 - - W 1007,5 19
08.12.2018 12:00:00 4,5 3,8 18 10 43 23 W 1007,3 20
08.12.2018 11:00:00 4,1 3,7 14 8 40 21 WZW 1007,7 12
08.12.2018 10:00:00 3,1 2,9 11 6 - - WZW 1007,7 5
08.12.2018 09:00:00 2,9 2,5 14 8 40 21 WZW 1008,2 4,9
08.12.2018 08:00:00 1,8 1,5 14 8 36 19 ZW 1008,7 4,2
08.12.2018 07:00:00 2,5 2,3 11 6 - - WZW 1008,3 4,2
08.12.2018 06:00:00 3,0 2,6 14 8 40 21 WZW 1008,6 19
08.12.2018 05:00:00 2,7 2,4 11 6 40 21 WZW 1008,7 20
08.12.2018 04:00:00 3,2 2,3 14 8 - - WZW 1009,0 20
08.12.2018 03:00:00 2,9 1,6 14 8 43 23 WZW 1009,7 20
08.12.2018 02:00:00 2,7 1,7 14 8 36 19 WZW 1009,7 16
08.12.2018 01:00:00 2,7 1,9 14 8 - - WZW 1009,2 14
08.12.2018 00:00:00 3,5 1,9 11 6 43 23 WZW 1009,1 20
07.12.2018 23:00:00 3,5 1,7 18 10 47 25 W 1008,3 20
07.12.2018 22:00:00 4,0 2,4 22 12 - - W 1007,6 20
07.12.2018 21:00:00 3,4 2,4 13 7 32 18 W 1006,2 10
07.12.2018 20:00:00 2,2 1,6 29 16 61 33 W 1005,2 5
07.12.2018 19:00:00 4,8 3,8 18 10 - - W 1002,8 11
07.12.2018 18:00:00 6,9 6,5 11 6 36 19 ZZW 1000,7 9
07.12.2018 17:00:00 6,8 6,3 11 6 32 18 ZZW 1001,5 13
07.12.2018 16:00:00 7,0 6,3 11 6 - - ZZW 1002,5 13
07.12.2018 15:00:00 7,0 6,4 14 8 43 23 ZW 1003,7 18
07.12.2018 14:00:00 7,9 6,3 14 8 43 23 ZZW 1004,5 19

tt = temperatuur
td = dauwpunt
ff = windsnelheid
fx = windstoten
dd = windrichting
ppp = luchtdruk
vv = zicht

Weerstations in de omgeving